TimeEDT,TemperatureF,Dew PointF,Humidity,Sea Level PressureIn,VisibilityMPH,Wind Direction,Wind SpeedMPH,Gust SpeedMPH,PrecipitationIn,Events,Conditions,WindDirDegrees,DateUTC
12:52 AM,46.9,37.0,68,30.12,10.0,West,9.2,-,N/A,,Clear,280,2013-05-27 04:52:00
1:52 AM,46.9,37.0,68,30.12,10.0,West,10.4,-,N/A,,Clear,270,2013-05-27 05:52:00
2:52 AM,46.0,37.0,71,30.12,10.0,West,8.1,-,N/A,,Clear,260,2013-05-27 06:52:00
3:52 AM,45.0,37.0,74,30.12,10.0,West,8.1,-,N/A,,Clear,260,2013-05-27 07:52:00
4:52 AM,43.0,37.0,80,30.12,10.0,WSW,5.8,-,N/A,,Clear,240,2013-05-27 08:52:00
5:52 AM,44.1,39.0,82,30.13,10.0,Calm,Calm,-,N/A,,Clear,0,2013-05-27 09:52:00
6:52 AM,50.0,39.0,66,30.14,10.0,West,8.1,-,N/A,,Clear,260,2013-05-27 10:52:00
7:52 AM,53.1,39.0,59,30.14,10.0,West,9.2,-,N/A,,Clear,270,2013-05-27 11:52:00
8:52 AM,57.9,41.0,53,30.14,10.0,West,9.2,-,N/A,,Clear,270,2013-05-27 12:52:00
9:52 AM,62.1,39.9,44,30.13,10.0,West,11.5,-,N/A,,Clear,270,2013-05-27 13:52:00
10:52 AM,66.0,39.0,37,30.13,10.0,WNW,15.0,20.7,N/A,,Clear,290,2013-05-27 14:52:00
11:52 AM,69.1,35.1,29,30.12,10.0,WNW,16.1,20.7,N/A,,Clear,290,2013-05-27 15:52:00
12:52 PM,69.1,35.1,29,30.10,10.0,WNW,12.7,23.0,N/A,,Clear,290,2013-05-27 16:52:00
1:52 PM,70.0,34.0,27,30.10,10.0,NW,9.2,21.9,N/A,,Clear,310,2013-05-27 17:52:00
2:52 PM,71.1,36.0,28,30.09,10.0,WNW,8.1,-,N/A,,Clear,300,2013-05-27 18:52:00
3:52 PM,71.1,34.0,26,30.08,10.0,West,10.4,20.7,N/A,,Clear,270,2013-05-27 19:52:00
4:52 PM,72.0,34.0,25,30.08,10.0,West,12.7,20.7,N/A,,Clear,280,2013-05-27 20:52:00
5:52 PM,71.1,33.1,25,30.08,10.0,WNW,12.7,-,N/A,,Clear,300,2013-05-27 21:52:00
6:52 PM,70.0,34.0,27,30.09,10.0,WNW,9.2,-,N/A,,Clear,300,2013-05-27 22:52:00
7:52 PM,64.0,43.0,46,30.11,10.0,SW,6.9,-,N/A,,Clear,220,2013-05-27 23:52:00
8:52 PM,55.9,44.1,64,30.13,10.0,SE,5.8,-,N/A,,Clear,130,2013-05-28 00:52:00
9:52 PM,55.9,44.1,64,30.15,10.0,Calm,Calm,-,N/A,,Clear,0,2013-05-28 01:52:00
10:52 PM,51.1,44.1,77,30.17,10.0,Calm,Calm,-,N/A,,Clear,0,2013-05-28 02:52:00
11:52 PM,46.9,42.1,83,30.17,10.0,Calm,Calm,-,N/A,,Clear,0,2013-05-28 03:52:00